N991WW KCVG-KBKW

Flight info

Callsign N991WW
Flight time 0h 50m
Altitude 21000
Route HVQ
Aircraft B350/L-SBGRW/S

Departure

Time 2026-04-19 04:16
Airport Cincinnati Northern Kentucky International Airport (KCVG)

Arrival

Time 2026-04-19 05:06
Airport Raleigh County Memorial Airport (KBKW)
Time Latitude Longitude Altitude Speed Heading
2026-04-19 04:02 39.04427 -84.66259 869 ft 0 kts 89°
2026-04-19 04:04 39.04354 -84.65596 870 ft 0 kts 90°
2026-04-19 04:11 39.04369 -84.65581 869 ft 7 kts 20°
2026-04-19 04:11 39.04426 -84.65587 867 ft 9 kts 356°
2026-04-19 04:12 39.04464 -84.65546 866 ft 12 kts 96°
2026-04-19 04:12 39.04463 -84.65417 867 ft 14 kts 90°
2026-04-19 04:12 39.04470 -84.65323 868 ft 10 kts 58°
2026-04-19 04:12 39.04517 -84.65300 867 ft 8 kts
2026-04-19 04:13 39.04531 -84.65300 867 ft 0 kts
2026-04-19 04:13 39.04533 -84.65300 867 ft 0 kts
2026-04-19 04:13 39.04545 -84.65300 867 ft 6 kts
2026-04-19 04:13 39.04593 -84.65302 867 ft 2 kts 357°
2026-04-19 04:14 39.04628 -84.65345 867 ft 6 kts 273°
2026-04-19 04:14 39.04628 -84.65347 867 ft 0 kts 269°
2026-04-19 04:15 39.04628 -84.65377 868 ft 11 kts 271°
2026-04-19 04:15 39.04629 -84.65710 862 ft 73 kts 270°
2026-04-19 04:15 39.04630 -84.66631 936 ft 126 kts 270°
2026-04-19 04:15 39.04627 -84.67873 1289 ft 149 kts 270°
2026-04-19 04:16 39.04602 -84.69258 1807 ft 158 kts 270°
2026-04-19 04:16 39.04521 -84.70695 2173 ft 168 kts 272°
2026-04-19 04:16 39.04443 -84.72171 2604 ft 164 kts 271°
2026-04-19 04:16 39.04344 -84.73647 2905 ft 168 kts 271°
2026-04-19 04:17 39.04262 -84.75179 3000 ft 176 kts 272°
2026-04-19 04:17 39.04205 -84.76776 3042 ft 179 kts 273°
2026-04-19 04:17 39.04154 -84.78420 3006 ft 183 kts 273°
2026-04-19 04:17 39.04094 -84.80025 3108 ft 177 kts 273°
2026-04-19 04:18 39.04066 -84.81594 3119 ft 176 kts 274°
2026-04-19 04:18 39.04049 -84.83102 3421 ft 161 kts 275°
2026-04-19 04:18 39.03992 -84.84524 3688 ft 159 kts 267°
2026-04-19 04:18 39.03545 -84.85817 4071 ft 162 kts 238°
2026-04-19 04:19 39.02577 -84.86586 4533 ft 175 kts 197°
2026-04-19 04:19 39.01362 -84.86239 4953 ft 191 kts 142°
2026-04-19 04:19 39.00662 -84.84861 5471 ft 189 kts 110°
2026-04-19 04:19 39.00115 -84.83305 6005 ft 192 kts 107°
2026-04-19 04:20 38.99680 -84.81668 6566 ft 195 kts 101°
2026-04-19 04:20 38.99321 -84.79970 7189 ft 199 kts 102°
2026-04-19 04:20 38.98973 -84.78238 7830 ft 202 kts 104°
2026-04-19 04:20 38.98623 -84.76474 8471 ft 205 kts 106°
2026-04-19 04:21 38.98271 -84.74691 9100 ft 207 kts 108°
2026-04-19 04:21 38.97911 -84.72879 9724 ft 211 kts 110°
2026-04-19 04:21 38.97547 -84.71045 10345 ft 212 kts 112°
2026-04-19 04:21 38.97182 -84.69205 10940 ft 212 kts 113°
2026-04-19 04:22 38.96822 -84.67382 11575 ft 210 kts 115°
2026-04-19 04:22 38.96464 -84.65571 12167 ft 208 kts 117°
2026-04-19 04:22 38.96227 -84.64380 12578 ft 208 kts 118°
2026-04-19 04:22 38.95867 -84.62578 13141 ft 209 kts 118°
2026-04-19 04:23 38.95507 -84.60775 13712 ft 209 kts 119°
2026-04-19 04:23 38.95144 -84.58966 14208 ft 208 kts 119°
2026-04-19 04:23 38.94786 -84.57163 14648 ft 208 kts 120°
2026-04-19 04:23 38.94426 -84.55362 15061 ft 208 kts 120°
2026-04-19 04:24 38.94071 -84.53577 15516 ft 205 kts 121°
2026-04-19 04:24 38.93716 -84.51803 15927 ft 205 kts 121°
2026-04-19 04:24 38.93363 -84.50038 16361 ft 203 kts 121°
2026-04-19 04:24 38.93010 -84.48277 16763 ft 203 kts 121°
2026-04-19 04:25 38.92658 -84.46528 17195 ft 201 kts 122°
2026-04-19 04:25 38.92310 -84.44792 17618 ft 200 kts 122°
2026-04-19 04:25 38.91965 -84.43083 17997 ft 201 kts 122°
2026-04-19 04:25 38.91619 -84.41353 18419 ft 198 kts 123°
2026-04-19 04:26 38.91271 -84.39631 18743 ft 200 kts 123°
2026-04-19 04:26 38.90913 -84.37883 19054 ft 204 kts 123°
2026-04-19 04:26 38.90554 -84.36115 19398 ft 206 kts 123°
2026-04-19 04:26 38.90188 -84.34314 19721 ft 209 kts 123°
2026-04-19 04:27 38.89818 -84.32491 20040 ft 213 kts 123°
2026-04-19 04:27 38.89444 -84.30637 20398 ft 215 kts 123°
2026-04-19 04:27 38.89071 -84.28789 20698 ft 218 kts 121°
2026-04-19 04:27 38.88659 -84.26892 21002 ft 218 kts 128°
2026-04-19 04:28 38.88074 -84.25058 21125 ft 230 kts 131°
2026-04-19 04:28 38.87388 -84.23102 21146 ft 249 kts 130°
2026-04-19 04:28 38.86665 -84.21004 21152 ft 264 kts 128°
2026-04-19 04:28 38.85921 -84.18786 21145 ft 276 kts 127°
2026-04-19 04:29 38.85151 -84.16470 21146 ft 288 kts 127°
2026-04-19 04:29 38.84359 -84.14074 21143 ft 294 kts 126°
2026-04-19 04:29 38.83556 -84.11638 21141 ft 299 kts 126°
2026-04-19 04:29 38.82741 -84.09168 21141 ft 301 kts 126°
2026-04-19 04:30 38.81921 -84.06689 21140 ft 303 kts 126°
2026-04-19 04:30 38.81096 -84.04200 21141 ft 304 kts 126°
2026-04-19 04:30 38.80269 -84.01708 21141 ft 304 kts 126°
2026-04-19 04:30 38.79438 -83.99209 21145 ft 305 kts 126°
2026-04-19 04:31 38.78603 -83.96709 21143 ft 305 kts 126°
2026-04-19 04:31 38.77767 -83.94207 21136 ft 305 kts 126°
2026-04-19 04:31 38.76944 -83.91741 21137 ft 305 kts 126°
2026-04-19 04:31 38.76109 -83.89249 21134 ft 306 kts 125°
2026-04-19 04:32 38.75265 -83.86735 21138 ft 307 kts 125°
2026-04-19 04:32 38.74416 -83.84215 21146 ft 309 kts 125°
2026-04-19 04:32 38.73564 -83.81683 21146 ft 310 kts 124°
2026-04-19 04:32 38.72709 -83.79140 21112 ft 311 kts 125°
2026-04-19 04:33 38.71852 -83.76590 21131 ft 311 kts 125°
2026-04-19 04:33 38.70998 -83.74047 21136 ft 311 kts 125°
2026-04-19 04:33 38.70141 -83.71503 21140 ft 311 kts 125°
2026-04-19 04:33 38.69293 -83.68991 21143 ft 311 kts 125°
2026-04-19 04:34 38.68430 -83.66439 21144 ft 312 kts 125°
2026-04-19 04:34 38.67569 -83.63890 21143 ft 312 kts 125°
2026-04-19 04:34 38.66707 -83.61343 21174 ft 312 kts 125°
2026-04-19 04:34 38.65844 -83.58797 21172 ft 312 kts 125°
2026-04-19 04:35 38.64980 -83.56248 21168 ft 312 kts 125°
2026-04-19 04:35 38.64116 -83.53701 21166 ft 312 kts 125°
2026-04-19 04:35 38.63255 -83.51161 21155 ft 310 kts 125°
2026-04-19 04:35 38.62399 -83.48637 21154 ft 308 kts 125°
2026-04-19 04:36 38.61546 -83.46126 21153 ft 307 kts 125°
2026-04-19 04:36 38.60695 -83.43626 21136 ft 306 kts 125°
2026-04-19 04:36 38.59846 -83.41135 21137 ft 305 kts 125°
2026-04-19 04:36 38.59008 -83.38683 21148 ft 305 kts 125°
2026-04-19 04:37 38.58156 -83.36209 21142 ft 304 kts 125°
2026-04-19 04:37 38.57309 -83.33730 21135 ft 304 kts 125°
2026-04-19 04:37 38.56460 -83.31248 21137 ft 303 kts 125°
2026-04-19 04:37 38.55613 -83.28773 21134 ft 303 kts 125°
2026-04-19 04:38 38.54814 -83.26439 21134 ft 304 kts 125°
2026-04-19 04:38 38.53935 -83.23872 21137 ft 304 kts 125°
2026-04-19 04:38 38.53085 -83.21396 21135 ft 303 kts 126°
2026-04-19 04:38 38.52236 -83.18934 21133 ft 304 kts 126°
2026-04-19 04:39 38.51394 -83.16484 21137 ft 307 kts 125°
2026-04-19 04:39 38.50533 -83.13981 21121 ft 308 kts 124°
2026-04-19 04:39 38.49665 -83.11458 21129 ft 311 kts 124°
2026-04-19 04:39 38.48791 -83.08923 21129 ft 312 kts 124°
2026-04-19 04:40 38.47914 -83.06381 21136 ft 313 kts 124°
2026-04-19 04:40 38.47034 -83.03826 21133 ft 314 kts 124°
2026-04-19 04:40 38.46151 -83.01268 21125 ft 315 kts 124°
2026-04-19 04:40 38.45273 -82.98730 21132 ft 315 kts 124°
2026-04-19 04:41 38.44389 -82.96171 21125 ft 315 kts 123°
2026-04-19 04:41 38.43502 -82.93607 21117 ft 315 kts 123°
2026-04-19 04:41 38.42615 -82.91047 21125 ft 316 kts 123°
2026-04-19 04:41 38.41726 -82.88485 21129 ft 316 kts 123°
2026-04-19 04:42 38.40834 -82.85917 21127 ft 316 kts 123°
2026-04-19 04:42 38.39945 -82.83354 21125 ft 316 kts 123°
2026-04-19 04:42 38.39050 -82.80784 21124 ft 316 kts 123°
2026-04-19 04:42 38.38156 -82.78217 21107 ft 317 kts 123°
2026-04-19 04:43 38.37264 -82.75656 21078 ft 315 kts 124°
2026-04-19 04:43 38.36377 -82.73109 21077 ft 314 kts 124°
2026-04-19 04:43 38.35489 -82.70565 21025 ft 315 kts 124°
2026-04-19 04:43 38.34595 -82.68021 20814 ft 321 kts 124°
2026-04-19 04:44 38.33676 -82.65407 20596 ft 324 kts 124°
2026-04-19 04:44 38.32754 -82.62779 20371 ft 324 kts 124°
2026-04-19 04:44 38.31899 -82.60120 20154 ft 327 kts 117°
2026-04-19 04:44 38.31338 -82.57288 19931 ft 330 kts 111°
2026-04-19 04:45 38.30793 -82.54454 19724 ft 329 kts 113°
2026-04-19 04:45 38.30212 -82.51633 19514 ft 329 kts 113°
2026-04-19 04:45 38.29623 -82.48820 19248 ft 330 kts 113°
2026-04-19 04:45 38.29037 -82.46025 18980 ft 331 kts 113°
2026-04-19 04:46 38.28446 -82.43189 18736 ft 332 kts 112°
2026-04-19 04:46 38.27888 -82.40490 18501 ft 332 kts 112°
2026-04-19 04:46 38.27304 -82.37650 18197 ft 331 kts 112°
2026-04-19 04:46 38.26723 -82.34828 17905 ft 329 kts 112°
2026-04-19 04:47 38.26145 -82.32021 17611 ft 327 kts 112°
2026-04-19 04:47 38.25571 -82.29224 17324 ft 325 kts 112°
2026-04-19 04:47 38.24998 -82.26442 17044 ft 324 kts 112°
2026-04-19 04:47 38.24427 -82.23675 16763 ft 323 kts 111°
2026-04-19 04:48 38.23857 -82.20912 16493 ft 322 kts 112°
2026-04-19 04:48 38.23289 -82.18163 16215 ft 321 kts 112°
2026-04-19 04:48 38.22721 -82.15421 15945 ft 320 kts 112°
2026-04-19 04:48 38.22154 -82.12687 15675 ft 319 kts 112°
2026-04-19 04:49 38.21588 -82.09962 15405 ft 319 kts 111°
2026-04-19 04:49 38.21021 -82.07239 15139 ft 318 kts 111°
2026-04-19 04:49 38.20456 -82.04530 14880 ft 317 kts 111°
2026-04-19 04:49 38.19891 -82.01821 14616 ft 317 kts 111°
2026-04-19 04:50 38.19327 -81.99115 14348 ft 315 kts 111°
2026-04-19 04:50 38.18764 -81.96421 14092 ft 314 kts 111°
2026-04-19 04:50 38.18207 -81.93750 13826 ft 310 kts 111°
2026-04-19 04:50 38.17660 -81.91137 13548 ft 308 kts 111°
2026-04-19 04:51 38.17108 -81.88512 13262 ft 307 kts 111°
2026-04-19 04:51 38.16553 -81.85880 12986 ft 308 kts 111°
2026-04-19 04:51 38.15995 -81.83240 12702 ft 309 kts 111°
2026-04-19 04:51 38.15440 -81.80604 12423 ft 308 kts 111°
2026-04-19 04:52 38.14888 -81.77978 12134 ft 305 kts 111°
2026-04-19 04:52 38.14344 -81.75385 11857 ft 303 kts 111°
2026-04-19 04:52 38.13806 -81.72843 11590 ft 302 kts 111°
2026-04-19 04:52 38.13264 -81.70278 11319 ft 299 kts 112°
2026-04-19 04:53 38.12724 -81.67729 11053 ft 298 kts 111°
2026-04-19 04:53 38.12188 -81.65195 10764 ft 294 kts 112°
2026-04-19 04:53 38.11665 -81.62715 10496 ft 288 kts 111°
2026-04-19 04:53 38.11147 -81.60274 10253 ft 285 kts 111°
2026-04-19 04:54 38.10628 -81.57856 10002 ft 283 kts 111°
2026-04-19 04:54 38.10120 -81.55465 9882 ft 276 kts 111°
2026-04-19 04:54 38.09620 -81.53123 9706 ft 274 kts 111°
2026-04-19 04:54 38.09121 -81.50797 9527 ft 272 kts 111°
2026-04-19 04:55 38.08626 -81.48493 9327 ft 270 kts 111°
2026-04-19 04:55 38.08135 -81.46197 9141 ft 269 kts 110°
2026-04-19 04:55 38.07647 -81.43919 8967 ft 267 kts 111°
2026-04-19 04:55 38.07159 -81.41654 8779 ft 264 kts 111°
2026-04-19 04:56 38.06679 -81.39434 8606 ft 262 kts 111°
2026-04-19 04:56 38.06206 -81.37211 8399 ft 260 kts 110°
2026-04-19 04:56 38.05790 -81.35245 8241 ft 248 kts 111°
2026-04-19 04:56 38.05346 -81.33164 8067 ft 241 kts 111°
2026-04-19 04:57 38.04907 -81.31134 7899 ft 235 kts 111°
2026-04-19 04:57 38.04475 -81.29146 7734 ft 233 kts 111°
2026-04-19 04:57 38.04050 -81.27165 7548 ft 233 kts 111°
2026-04-19 04:57 38.03614 -81.25188 7378 ft 232 kts 111°
2026-04-19 04:58 38.03226 -81.23196 7201 ft 234 kts 106°
2026-04-19 04:58 38.02982 -81.21149 7034 ft 234 kts 101°
2026-04-19 04:58 38.02780 -81.19104 6853 ft 234 kts 102°
2026-04-19 04:58 38.02570 -81.17060 6679 ft 233 kts 101°
2026-04-19 04:59 38.02364 -81.15028 6505 ft 230 kts 102°
2026-04-19 04:59 38.02129 -81.13024 6341 ft 228 kts 108°
2026-04-19 04:59 38.01486 -81.11249 6158 ft 218 kts 134°
2026-04-19 04:59 38.00409 -81.09984 5984 ft 206 kts 157°
2026-04-19 05:00 37.99137 -81.09348 5815 ft 196 kts 177°
2026-04-19 05:00 37.97800 -81.09318 5636 ft 185 kts 194°
2026-04-19 05:00 37.96574 -81.09532 5494 ft 171 kts 193°
2026-04-19 05:00 37.95456 -81.09704 5312 ft 155 kts 193°
2026-04-19 05:01 37.94409 -81.09870 5141 ft 149 kts 193°
2026-04-19 05:01 37.93394 -81.10041 4976 ft 146 kts 194°
2026-04-19 05:01 37.92398 -81.10227 4816 ft 144 kts 193°
2026-04-19 05:01 37.91401 -81.10398 4655 ft 145 kts 191°
2026-04-19 05:02 37.90408 -81.10552 4468 ft 143 kts 193°
2026-04-19 05:02 37.89467 -81.10705 4296 ft 124 kts 192°
2026-04-19 05:02 37.88660 -81.10838 4117 ft 114 kts 193°
2026-04-19 05:02 37.87882 -81.10958 3975 ft 112 kts 192°
2026-04-19 05:03 37.87115 -81.11107 3978 ft 112 kts 197°
2026-04-19 05:03 37.86328 -81.11242 3948 ft 115 kts 189°
2026-04-19 05:03 37.85509 -81.11266 3846 ft 121 kts 186°
2026-04-19 05:03 37.84683 -81.11350 3731 ft 116 kts 190°
2026-04-19 05:04 37.83902 -81.11495 3509 ft 113 kts 195°
2026-04-19 05:04 37.83149 -81.11637 3337 ft 108 kts 194°
2026-04-19 05:04 37.82407 -81.11812 3094 ft 109 kts 195°
2026-04-19 05:04 37.81664 -81.12000 2894 ft 107 kts 188°
2026-04-19 05:05 37.80950 -81.12113 2633 ft 101 kts 189°
2026-04-19 05:05 37.80300 -81.12230 2511 ft 91 kts 188°
2026-04-19 05:05 37.79656 -81.12330 2451 ft 92 kts 191°
2026-04-19 05:05 37.79090 -81.12432 2433 ft 70 kts 185°
2026-04-19 05:06 37.78771 -81.12481 2433 ft 23 kts 187°
2026-04-19 05:06 37.78612 -81.12510 2435 ft 23 kts 188°
2026-04-19 05:06 37.78498 -81.12504 2436 ft 11 kts 129°
2026-04-19 05:06 37.78487 -81.12392 2434 ft 13 kts 97°
2026-04-19 05:07 37.78473 -81.12269 2434 ft 13 kts 97°
2026-04-19 05:07 37.78497 -81.12210 2431 ft 0 kts 10°